Regional Weather Roundup
Issued by NWS

Home | Current Version | Previous Version | Graphics & Text | Print | Product List | Glossary On
Versions: 1 2 3 4 5 6 7 8 9 10 11 12 13 14 15 16 17 18 19 20 21 22 23 24 25 26 27 28 29 30 31 32 33 34 35 36 37 38 39 40 41 42 43 44 45 46 47 48 49 50
000
ASUS44 KMEG 011610
RWRTN
TENNESSEE HOURLY STATE WEATHER ROUNDUP
NATIONAL WEATHER SERVICE MEMPHIS TN
1100 AM CDT MON JUN 01 2015

TNZ002-004-019-021-049-052-054-088>092-011700-
WEST TENNESSEE

CITY           SKY/WX    TMP DP  RH WIND       PRES   REMARKS
MEMPHIS INTL   CLOUDY    66  60  81 N6        30.11R
NWS MEMPHIS      N/A     65 N/A N/A MISG        N/A
JACKSON        CLOUDY    65  61  87 N9        30.10R
DYERSBURG      CLOUDY    64  48  55 N8        30.12S
PARIS          CLOUDY    63  57  82 N7        30.10S
LEXINGTON      CLOUDY    63  61  94 NW7       30.08S
$$

TNZ008-025-027-028-033-062-065-066-011700-
NORTH MIDDLE TENNESSEE

CITY           SKY/WX    TMP DP  RH WIND       PRES   REMARKS
NASHVILLE      LGT RAIN  66  64  93 N3        30.08R FOG
CLARKSVILLE    CLOUDY    63  60  90 N13       30.09R
SMYRNA         CLOUDY    67  65  93 N5        30.08R
COOKEVILLE     MOSUNNY   75  66  73 W5        30.06S
CROSSVILLE     PTSUNNY   72  62  71 MISG      30.10S
$$

TNZ061-075-076-078-094-096-097-011700-
SOUTH MIDDLE TENNESSEE

CITY           SKY/WX    TMP DP  RH WIND       PRES   REMARKS
FAYETTEVILLE   PTSUNNY  N/A N/A N/A MISG      30.07S
TULLAHOMA      CLOUDY    72  64  78 SW7       30.09R
WINCHESTER     CLOUDY    75  64  69 SW5       30.08R
MCMINNVILLE    PTSUNNY   73  68  83 SW8       30.08R
COLUMBIA       CLOUDY    70  66  88 CALM      30.05R
SHELBYVILLE    CLOUDY    75  68  78 SW6       30.08R
$$

TNZ017-018-042-046-047-011700-
NORTHEAST TENNESSEE

CITY           SKY/WX    TMP DP  RH WIND       PRES   REMARKS
TRI CITIES     PTSUNNY   77  62  59 SW5       30.08S
ELIZABETHTON   MOSUNNY   77  63  61 N3        30.08S
$$

TNZ012-013-036-069-073-074-011700-
CENTRAL EAST TENNESSEE

CITY           SKY/WX    TMP DP  RH WIND       PRES   REMARKS
KNOXVILLE      PTSUNNY   76  66  71 W7G16     30.06F
OAK RIDGE      MOSUNNY   77  65  66 VRB5      30.07F
GATLINBURG     SUNNY     73  64  73 VRB3      30.07S
MORRISTOWN     SUNNY     77  64  65 CALM      30.09F
$$

TNZ083-085-099-011700-
SOUTHEAST TENNESSEE

CITY           SKY/WX    TMP DP  RH WIND       PRES   REMARKS
CHATTANOOGA    CLOUDY    74  65  73 S10       30.09R
$$

SKY/WX REPORTED AS FAIR MEANS FEW OR NO CLOUDS BELOW
12 THOUSAND FEET.



USA.gov is the U.S. government's official web portal to all federal, state and local government web resources and services.